Time,TemperatureF,DewpointF,PressureIn,WindDirection,WindDirectionDegrees,WindSpeedMPH,WindSpeedGustMPH,Humidity,HourlyPrecipIn,Conditions,Clouds,dailyrainin,SoftwareType,DateUTC
2013-06-03 00:01:00,65.0,63.8,29.82,West,259,0.0,3.0,96,0.00,,,0.55,VWS V14.01,2013-06-03 04:01:00,
2013-06-03 00:02:00,65.0,63.8,29.82,West,259,0.0,3.0,96,0.00,,,0.55,VWS V14.01,2013-06-03 04:02:00,
2013-06-03 00:05:00,65.0,63.8,29.82,West,259,0.0,3.0,96,0.00,,,0.55,VWS V14.01,2013-06-03 04:05:00,
2013-06-03 00:07:00,65.0,63.8,29.82,West,259,0.0,3.0,96,0.00,,,0.00,VWS V14.01,2013-06-03 04:07:00,
2013-06-03 00:12:00,65.0,63.8,29.82,West,259,0.0,3.0,96,0.00,,,0.00,VWS V14.01,2013-06-03 04:12:00,
2013-06-03 00:17:00,65.0,63.8,29.82,West,259,0.0,3.0,96,0.00,,,0.00,VWS V14.01,2013-06-03 04:17:00,
2013-06-03 00:22:00,65.0,63.8,29.82,West,259,0.0,3.0,96,0.00,,,0.00,VWS V14.01,2013-06-03 04:22:00,
2013-06-03 00:28:00,65.0,63.8,29.82,West,259,0.0,3.0,96,0.00,,,0.00,VWS V14.01,2013-06-03 04:28:00,
2013-06-03 00:33:00,65.0,63.8,29.82,West,259,0.0,3.0,96,0.00,,,0.00,VWS V14.01,2013-06-03 04:33:00,
2013-06-03 00:38:00,65.0,63.8,29.82,West,259,0.0,3.0,96,0.00,,,0.00,VWS V14.01,2013-06-03 04:38:00,
2013-06-03 00:43:00,65.0,63.8,29.82,West,259,0.0,3.0,96,0.00,,,0.00,VWS V14.01,2013-06-03 04:43:00,
2013-06-03 00:48:00,65.2,64.0,29.82,West,259,0.0,3.0,96,0.00,,,0.00,VWS V14.01,2013-06-03 04:48:00,
2013-06-03 00:54:00,65.3,64.1,29.82,West,259,0.0,3.0,96,0.00,,,0.00,VWS V14.01,2013-06-03 04:54:00,
2013-06-03 00:59:00,65.5,64.3,29.82,West,259,0.0,3.0,96,0.00,,,0.00,VWS V14.01,2013-06-03 04:59:00,
2013-06-03 01:04:00,65.5,64.3,29.81,West,259,0.0,3.0,96,0.00,,,0.00,VWS V14.01,2013-06-03 05:04:00,
2013-06-03 01:09:00,65.5,64.3,29.81,West,259,0.0,3.0,96,0.00,,,0.00,VWS V14.01,2013-06-03 05:09:00,
2013-06-03 01:14:00,65.5,64.3,29.81,West,259,0.0,3.0,96,0.00,,,0.00,VWS V14.01,2013-06-03 05:14:00,
2013-06-03 01:19:00,65.5,64.3,29.82,West,259,0.0,3.0,96,0.00,,,0.00,VWS V14.01,2013-06-03 05:19:00,
2013-06-03 01:24:00,65.5,64.3,29.82,West,259,0.0,3.0,96,0.00,,,0.00,VWS V14.01,2013-06-03 05:24:00,
2013-06-03 01:29:00,65.3,64.1,29.82,West,259,0.0,3.0,96,0.00,,,0.00,VWS V14.01,2013-06-03 05:29:00,
2013-06-03 01:34:00,65.3,64.1,29.81,West,259,0.0,3.0,96,0.00,,,0.00,VWS V14.01,2013-06-03 05:34:00,
2013-06-03 01:40:00,65.2,64.0,29.81,West,259,0.0,3.0,96,0.00,,,0.00,VWS V14.01,2013-06-03 05:40:00,
2013-06-03 01:45:00,65.2,64.0,29.81,West,259,0.0,3.0,96,0.00,,,0.00,VWS V14.01,2013-06-03 05:45:00,
2013-06-03 01:50:00,65.2,64.0,29.82,West,259,0.0,3.0,96,0.00,,,0.00,VWS V14.01,2013-06-03 05:50:00,
2013-06-03 01:55:00,65.3,64.1,29.82,West,259,0.0,3.0,96,0.00,,,0.00,VWS V14.01,2013-06-03 05:55:00,
2013-06-03 02:00:00,65.3,64.1,29.82,West,259,0.0,3.0,96,0.00,,,0.00,VWS V14.01,2013-06-03 06:00:00,
2013-06-03 02:05:00,65.5,64.3,29.81,West,259,0.0,3.0,96,0.00,,,0.00,VWS V14.01,2013-06-03 06:05:00,
2013-06-03 02:10:00,65.5,64.3,29.81,SW,219,0.0,3.0,96,0.00,,,0.00,VWS V14.01,2013-06-03 06:10:00,
2013-06-03 02:15:00,65.5,64.3,29.81,SW,219,0.0,3.0,96,0.00,,,0.00,VWS V14.01,2013-06-03 06:15:00,
2013-06-03 02:20:00,65.6,64.4,29.81,SW,219,0.0,3.0,96,0.00,,,0.00,VWS V14.01,2013-06-03 06:20:00,
2013-06-03 02:25:00,65.6,64.4,29.81,SW,219,0.0,3.0,96,0.00,,,0.00,VWS V14.01,2013-06-03 06:25:00,
2013-06-03 02:30:00,65.6,64.4,29.81,SW,219,0.0,3.0,96,0.00,,,0.00,VWS V14.01,2013-06-03 06:30:00,
2013-06-03 02:35:00,65.6,64.1,29.81,SW,219,0.0,3.0,95,0.00,,,0.00,VWS V14.01,2013-06-03 06:35:00,
2013-06-03 02:41:00,65.6,64.1,29.81,SW,219,0.0,3.0,95,0.00,,,0.00,VWS V14.01,2013-06-03 06:41:00,
2013-06-03 02:46:00,65.6,64.1,29.81,SW,219,0.0,3.0,95,0.00,,,0.00,VWS V14.01,2013-06-03 06:46:00,
2013-06-03 02:52:00,65.6,64.1,29.81,SW,225,0.0,3.0,95,0.00,,,0.00,VWS V14.01,2013-06-03 06:52:00,
2013-06-03 02:57:00,65.6,64.1,29.81,SW,225,0.0,3.0,95,0.00,,,0.00,VWS V14.01,2013-06-03 06:57:00,
2013-06-03 03:02:00,65.5,64.0,29.81,SW,225,0.0,3.0,95,0.00,,,0.00,VWS V14.01,2013-06-03 07:02:00,
2013-06-03 03:07:00,65.5,64.0,29.80,SW,225,0.0,3.0,95,0.00,,,0.00,VWS V14.01,2013-06-03 07:07:00,
2013-06-03 03:12:00,65.5,64.0,29.80,SW,225,0.0,3.0,95,0.00,,,0.00,VWS V14.01,2013-06-03 07:12:00,
2013-06-03 03:17:00,65.5,64.0,29.80,SW,225,0.0,3.0,95,0.00,,,0.00,VWS V14.01,2013-06-03 07:17:00,
2013-06-03 03:22:00,65.3,63.8,29.81,SW,225,0.0,3.0,95,0.00,,,0.00,VWS V14.01,2013-06-03 07:22:00,
2013-06-03 03:27:00,65.3,63.8,29.81,SW,225,0.0,3.0,95,0.00,,,0.00,VWS V14.01,2013-06-03 07:27:00,
2013-06-03 03:32:00,65.2,63.7,29.81,SW,225,0.0,3.0,95,0.00,,,0.00,VWS V14.01,2013-06-03 07:32:00,
2013-06-03 03:37:00,65.0,63.5,29.81,WSW,251,0.0,3.0,95,0.00,,,0.00,VWS V14.01,2013-06-03 07:37:00,
2013-06-03 03:42:00,65.0,63.5,29.81,WSW,250,0.0,3.0,95,0.00,,,0.00,VWS V14.01,2013-06-03 07:42:00,
2013-06-03 03:47:00,65.0,63.8,29.81,SW,234,0.0,3.0,96,0.00,,,0.00,VWS V14.01,2013-06-03 07:47:00,
2013-06-03 03:52:00,65.0,63.8,29.80,SW,234,0.0,3.0,96,0.00,,,0.00,VWS V14.01,2013-06-03 07:52:00,
2013-06-03 03:57:00,65.0,63.8,29.80,SW,234,0.0,3.0,96,0.00,,,0.00,VWS V14.01,2013-06-03 07:57:00,
2013-06-03 04:02:00,65.0,63.8,29.80,SW,234,0.0,3.0,96,0.00,,,0.00,VWS V14.01,2013-06-03 08:02:00,
2013-06-03 04:07:00,65.0,63.8,29.79,SW,234,0.0,3.0,96,0.00,,,0.00,VWS V14.01,2013-06-03 08:07:00,
2013-06-03 04:13:00,65.0,63.8,29.79,SW,234,0.0,3.0,96,0.00,,,0.00,VWS V14.01,2013-06-03 08:13:00,
2013-06-03 04:18:00,65.2,64.0,29.79,SW,234,0.0,3.0,96,0.00,,,0.00,VWS V14.01,2013-06-03 08:18:00,
2013-06-03 04:23:00,65.2,64.0,29.79,SW,234,0.0,3.0,96,0.00,,,0.00,VWS V14.01,2013-06-03 08:23:00,
2013-06-03 04:28:00,65.0,63.8,29.79,SW,234,0.0,3.0,96,0.00,,,0.00,VWS V14.01,2013-06-03 08:28:00,
2013-06-03 04:33:00,65.0,63.8,29.79,SW,218,0.0,3.0,96,0.00,,,0.00,VWS V14.01,2013-06-03 08:33:00,
2013-06-03 04:38:00,65.2,64.0,29.79,SW,218,0.0,3.0,96,0.00,,,0.00,VWS V14.01,2013-06-03 08:38:00,
2013-06-03 04:43:00,65.2,64.0,29.79,SW,218,0.0,3.0,96,0.00,,,0.00,VWS V14.01,2013-06-03 08:43:00,
2013-06-03 04:48:00,65.2,64.0,29.79,SW,218,0.0,3.0,96,0.00,,,0.00,VWS V14.01,2013-06-03 08:48:00,
2013-06-03 04:53:00,65.2,64.0,29.79,SW,218,0.0,3.0,96,0.00,,,0.00,VWS V14.01,2013-06-03 08:53:00,
2013-06-03 04:59:00,65.3,64.1,29.79,SE,145,0.0,3.0,96,0.00,,,0.00,VWS V14.01,2013-06-03 08:59:00,
2013-06-03 05:04:00,65.3,64.1,29.80,SE,145,0.0,3.0,96,0.00,,,0.00,VWS V14.01,2013-06-03 09:04:00,
2013-06-03 05:09:00,65.2,64.0,29.80,WSW,252,1.0,3.0,96,0.00,,,0.00,VWS V14.01,2013-06-03 09:09:00,
2013-06-03 05:14:00,65.2,64.0,29.80,WSW,252,0.0,3.0,96,0.00,,,0.00,VWS V14.01,2013-06-03 09:14:00,
2013-06-03 05:19:00,65.2,64.0,29.80,WSW,252,0.0,3.0,96,0.00,,,0.00,VWS V14.01,2013-06-03 09:19:00,
2013-06-03 05:24:00,65.2,64.0,29.80,WSW,252,0.0,3.0,96,0.00,,,0.00,VWS V14.01,2013-06-03 09:24:00,
2013-06-03 05:30:00,65.2,64.0,29.80,WSW,252,0.0,3.0,96,0.00,,,0.00,VWS V14.01,2013-06-03 09:30:00,
2013-06-03 05:35:00,65.2,64.0,29.80,WSW,252,0.0,3.0,96,0.00,,,0.00,VWS V14.01,2013-06-03 09:35:00,
2013-06-03 05:40:00,65.2,64.0,29.80,WSW,252,0.0,3.0,96,0.00,,,0.00,VWS V14.01,2013-06-03 09:40:00,
2013-06-03 05:45:00,65.2,64.0,29.80,WSW,252,0.0,3.0,96,0.00,,,0.00,VWS V14.01,2013-06-03 09:45:00,
2013-06-03 05:50:00,65.2,64.0,29.80,SW,217,0.0,3.0,96,0.00,,,0.00,VWS V14.01,2013-06-03 09:50:00,
2013-06-03 05:55:00,65.2,64.0,29.80,SW,217,0.0,3.0,96,0.00,,,0.00,VWS V14.01,2013-06-03 09:55:00,
2013-06-03 06:00:00,65.0,63.8,29.80,SW,217,0.0,3.0,96,0.00,,,0.00,VWS V14.01,2013-06-03 10:00:00,
2013-06-03 06:05:00,65.0,63.8,29.81,SW,217,0.0,3.0,96,0.00,,,0.00,VWS V14.01,2013-06-03 10:05:00,
2013-06-03 06:10:00,65.0,63.8,29.81,SW,217,0.0,3.0,96,0.00,,,0.00,VWS V14.01,2013-06-03 10:10:00,
2013-06-03 06:15:00,65.0,63.8,29.81,SW,217,0.0,3.0,96,0.00,,,0.00,VWS V14.01,2013-06-03 10:15:00,
2013-06-03 06:21:00,65.0,63.8,29.81,SW,217,0.0,3.0,96,0.00,,,0.00,VWS V14.01,2013-06-03 10:21:00,
2013-06-03 06:26:00,65.0,63.8,29.81,SW,217,0.0,3.0,96,0.00,,,0.00,VWS V14.01,2013-06-03 10:26:00,
2013-06-03 06:31:00,65.0,63.8,29.81,SW,217,0.0,3.0,96,0.00,,,0.00,VWS V14.01,2013-06-03 10:31:00,
2013-06-03 06:36:00,65.0,63.8,29.82,SW,217,0.0,3.0,96,0.00,,,0.00,VWS V14.01,2013-06-03 10:36:00,
2013-06-03 06:41:00,65.0,63.8,29.82,SW,217,0.0,3.0,96,0.00,,,0.00,VWS V14.01,2013-06-03 10:41:00,
2013-06-03 06:46:00,65.0,63.8,29.82,SW,217,0.0,3.0,96,0.00,,,0.00,VWS V14.01,2013-06-03 10:46:00,
2013-06-03 06:51:00,65.0,63.8,29.82,SW,217,0.0,3.0,96,0.00,,,0.00,VWS V14.01,2013-06-03 10:51:00,
2013-06-03 06:57:00,65.0,63.8,29.82,SW,217,0.0,3.0,96,0.00,,,0.00,VWS V14.01,2013-06-03 10:57:00,
2013-06-03 07:02:00,65.0,63.8,29.82,SW,217,0.0,3.0,96,0.00,,,0.00,VWS V14.01,2013-06-03 11:02:00,
2013-06-03 07:07:00,65.0,63.8,29.82,SW,217,0.0,3.0,96,0.00,,,0.00,VWS V14.01,2013-06-03 11:07:00,
2013-06-03 07:12:00,65.2,64.0,29.82,SW,217,0.0,3.0,96,0.00,,,0.00,VWS V14.01,2013-06-03 11:12:00,
2013-06-03 07:17:00,65.2,64.0,29.82,SW,217,0.0,3.0,96,0.00,,,0.00,VWS V14.01,2013-06-03 11:17:00,
2013-06-03 07:22:00,65.2,64.0,29.82,SW,217,0.0,3.0,96,0.00,,,0.00,VWS V14.01,2013-06-03 11:22:00,
2013-06-03 07:27:00,65.3,64.1,29.82,SW,217,0.0,3.0,96,0.00,,,0.00,VWS V14.01,2013-06-03 11:27:00,
2013-06-03 07:33:00,65.3,64.1,29.82,SW,217,2.0,3.0,96,0.00,,,0.00,VWS V14.01,2013-06-03 11:33:00,
2013-06-03 07:38:00,65.3,64.1,29.82,SW,217,0.0,3.0,96,0.00,,,0.00,VWS V14.01,2013-06-03 11:38:00,
2013-06-03 07:43:00,65.3,64.1,29.82,SW,217,0.0,3.0,96,0.00,,,0.00,VWS V14.01,2013-06-03 11:43:00,
2013-06-03 07:48:00,65.3,64.1,29.82,SW,217,0.0,3.0,96,0.00,,,0.00,VWS V14.01,2013-06-03 11:48:00,
2013-06-03 07:53:00,65.2,64.0,29.83,SW,217,0.0,3.0,96,0.00,,,0.00,VWS V14.01,2013-06-03 11:53:00,
2013-06-03 07:58:00,65.0,63.8,29.83,SW,217,0.0,3.0,96,0.00,,,0.00,VWS V14.01,2013-06-03 11:58:00,
2013-06-03 08:03:00,65.2,64.0,29.83,SW,217,0.0,3.0,96,0.00,,,0.00,VWS V14.01,2013-06-03 12:03:00,
2013-06-03 08:08:00,65.2,63.7,29.84,SW,217,0.0,3.0,95,0.00,,,0.00,VWS V14.01,2013-06-03 12:08:00,
2013-06-03 08:13:00,65.3,63.8,29.84,SW,217,0.0,3.0,95,0.00,,,0.00,VWS V14.01,2013-06-03 12:13:00,
2013-06-03 08:19:00,65.3,63.5,29.84,SW,217,0.0,3.0,94,0.00,,,0.00,VWS V14.01,2013-06-03 12:19:00,
2013-06-03 08:24:00,65.3,63.5,29.84,SW,217,0.0,3.0,94,0.00,,,0.00,VWS V14.01,2013-06-03 12:24:00,
2013-06-03 08:29:00,65.5,63.4,29.84,SW,217,0.0,3.0,93,0.00,,,0.00,VWS V14.01,2013-06-03 12:29:00,
2013-06-03 08:34:00,65.5,63.4,29.84,SSW,213,0.0,3.0,93,0.00,,,0.00,VWS V14.01,2013-06-03 12:34:00,
2013-06-03 08:39:00,65.6,63.5,29.84,SSW,213,0.0,3.0,93,0.00,,,0.00,VWS V14.01,2013-06-03 12:39:00,
2013-06-03 08:44:00,65.8,63.1,29.84,SSW,213,0.0,3.0,91,0.00,,,0.00,VWS V14.01,2013-06-03 12:44:00,
2013-06-03 08:49:00,66.0,63.0,29.85,SSW,213,0.0,3.0,90,0.00,,,0.00,VWS V14.01,2013-06-03 12:49:00,
2013-06-03 08:55:00,66.3,63.3,29.85,SW,219,1.0,3.0,90,0.00,,,0.00,VWS V14.01,2013-06-03 12:55:00,
2013-06-03 09:00:00,66.6,63.3,29.85,SW,219,0.0,3.0,89,0.00,,,0.00,VWS V14.01,2013-06-03 13:00:00,
2013-06-03 09:05:00,66.8,63.1,29.85,SW,219,2.0,3.0,88,0.00,,,0.00,VWS V14.01,2013-06-03 13:05:00,
2013-06-03 09:10:00,67.1,63.1,29.85,SSW,208,0.0,3.0,87,0.00,,,0.00,VWS V14.01,2013-06-03 13:10:00,
2013-06-03 09:15:00,67.4,63.4,29.85,SSW,208,1.0,3.0,87,0.00,,,0.00,VWS V14.01,2013-06-03 13:15:00,
2013-06-03 09:20:00,67.6,62.6,29.85,SSW,208,2.0,3.0,84,0.00,,,0.00,VWS V14.01,2013-06-03 13:20:00,
2013-06-03 09:25:00,67.8,62.5,29.85,SSW,208,0.0,3.0,83,0.00,,,0.00,VWS V14.01,2013-06-03 13:25:00,
2013-06-03 09:31:00,67.9,62.9,29.85,SSW,208,1.0,3.0,84,0.00,,,0.00,VWS V14.01,2013-06-03 13:31:00,
2013-06-03 09:37:00,68.4,63.0,29.85,SSW,209,0.0,3.0,83,0.00,,,0.00,VWS V14.01,2013-06-03 13:37:00,
2013-06-03 09:42:00,68.6,63.2,29.85,SSW,209,0.0,3.0,83,0.00,,,0.00,VWS V14.01,2013-06-03 13:42:00,
2013-06-03 09:47:00,68.6,62.5,29.85,SSW,209,1.0,3.0,81,0.00,,,0.00,VWS V14.01,2013-06-03 13:47:00,
2013-06-03 09:52:00,68.6,62.9,29.85,SSW,210,2.0,3.0,82,0.00,,,0.00,VWS V14.01,2013-06-03 13:52:00,
2013-06-03 09:57:00,68.8,63.4,29.85,WNW,287,0.0,3.0,83,0.00,,,0.00,VWS V14.01,2013-06-03 13:57:00,
2013-06-03 10:02:00,68.8,63.1,29.85,WNW,287,0.0,3.0,82,0.00,,,0.00,VWS V14.01,2013-06-03 14:02:00,
2013-06-03 10:07:00,68.9,63.2,29.85,WSW,238,3.0,3.0,82,0.00,,,0.00,VWS V14.01,2013-06-03 14:07:00,
2013-06-03 10:13:00,68.6,62.2,29.85,WSW,238,0.0,3.0,80,0.00,,,0.00,VWS V14.01,2013-06-03 14:13:00,
2013-06-03 10:18:00,68.8,62.7,29.85,SW,230,0.0,3.0,81,0.00,,,0.00,VWS V14.01,2013-06-03 14:18:00,
2013-06-03 10:23:00,68.9,62.8,29.85,SW,232,0.0,3.0,81,0.00,,,0.00,VWS V14.01,2013-06-03 14:23:00,
2013-06-03 10:28:00,69.4,63.7,29.85,SW,232,0.0,3.0,82,0.00,,,0.00,VWS V14.01,2013-06-03 14:28:00,
2013-06-03 10:33:00,69.8,63.4,29.85,SW,232,0.0,3.0,80,0.00,,,0.00,VWS V14.01,2013-06-03 14:33:00,
2013-06-03 10:38:00,70.1,62.6,29.85,WNW,300,0.0,3.0,77,0.00,,,0.00,VWS V14.01,2013-06-03 14:38:00,
2013-06-03 10:43:00,70.3,63.1,29.85,West,275,3.0,3.0,78,0.00,,,0.00,VWS V14.01,2013-06-03 14:43:00,
2013-06-03 10:49:00,70.6,62.7,29.85,WSW,258,0.0,3.0,76,0.00,,,0.00,VWS V14.01,2013-06-03 14:49:00,
2013-06-03 10:54:00,70.8,61.7,29.85,SW,221,0.0,3.0,73,0.00,,,0.00,VWS V14.01,2013-06-03 14:54:00,
2013-06-03 10:59:00,70.6,63.4,29.85,SW,222,0.0,3.0,78,0.00,,,0.00,VWS V14.01,2013-06-03 14:59:00,
2013-06-03 11:04:00,70.9,63.0,29.85,West,260,1.0,3.0,76,0.00,,,0.00,VWS V14.01,2013-06-03 15:04:00,
2013-06-03 11:09:00,70.9,63.0,29.85,WSW,238,0.0,3.0,76,0.00,,,0.00,VWS V14.01,2013-06-03 15:09:00,
2013-06-03 11:14:00,71.5,62.0,29.85,ENE,65,1.0,3.0,72,0.00,,,0.00,VWS V14.01,2013-06-03 15:14:00,
2013-06-03 11:19:00,71.8,62.7,29.85,NNW,337,1.0,3.0,73,0.00,,,0.00,VWS V14.01,2013-06-03 15:19:00,
2013-06-03 11:25:00,72.0,61.7,29.85,SSW,211,0.0,3.0,70,0.00,,,0.00,VWS V14.01,2013-06-03 15:25:00,
2013-06-03 11:30:00,72.1,62.2,29.85,WNW,284,2.0,3.0,71,0.00,,,0.00,VWS V14.01,2013-06-03 15:30:00,
2013-06-03 11:35:00,72.3,62.8,29.85,West,263,1.0,3.0,72,0.00,,,0.00,VWS V14.01,2013-06-03 15:35:00,
2013-06-03 11:40:00,72.8,61.6,29.85,WSW,248,2.0,3.0,68,0.00,,,0.00,VWS V14.01,2013-06-03 15:40:00,
2013-06-03 11:45:00,73.3,60.8,29.85,WSW,244,2.0,3.0,65,0.00,,,0.00,VWS V14.01,2013-06-03 15:45:00,
2013-06-03 11:50:00,73.5,61.5,29.85,WSW,254,2.0,3.0,66,0.00,,,0.00,VWS V14.01,2013-06-03 15:50:00,
2013-06-03 11:55:00,74.0,63.2,29.85,WSW,254,0.0,3.0,69,0.00,,,0.00,VWS V14.01,2013-06-03 15:55:00,
2013-06-03 12:00:00,74.4,61.9,29.85,SW,228,0.0,3.0,65,0.00,,,0.00,VWS V14.01,2013-06-03 16:00:00,
2013-06-03 12:05:00,75.1,62.1,29.84,WSW,244,0.0,3.0,64,0.00,,,0.00,VWS V14.01,2013-06-03 16:05:00,
2013-06-03 12:10:00,75.6,62.6,29.84,West,279,3.0,3.0,64,0.00,,,0.00,VWS V14.01,2013-06-03 16:10:00,
2013-06-03 12:16:00,75.3,62.3,29.84,NW,305,0.0,3.0,64,0.00,,,0.00,VWS V14.01,2013-06-03 16:16:00,
2013-06-03 12:21:00,76.0,62.0,29.85,ENE,61,4.0,4.0,62,0.00,,,0.00,VWS V14.01,2013-06-03 16:21:00,
2013-06-03 12:26:00,76.3,63.2,29.85,WNW,301,1.0,3.0,64,0.00,,,0.00,VWS V14.01,2013-06-03 16:26:00,
2013-06-03 12:31:00,76.3,62.3,29.85,NNW,348,0.0,3.0,62,0.00,,,0.00,VWS V14.01,2013-06-03 16:31:00,
2013-06-03 12:36:00,76.3,61.9,29.85,NNW,344,0.0,3.0,61,0.00,,,0.00,VWS V14.01,2013-06-03 16:36:00,
2013-06-03 12:41:00,76.8,62.8,29.85,WNW,285,1.0,3.0,62,0.00,,,0.00,VWS V14.01,2013-06-03 16:41:00,
2013-06-03 12:46:00,77.2,62.7,29.85,West,264,0.0,3.0,61,0.00,,,0.00,VWS V14.01,2013-06-03 16:46:00,
2013-06-03 12:51:00,77.9,62.4,29.84,West,271,2.0,3.0,59,0.00,,,0.00,VWS V14.01,2013-06-03 16:51:00,
2013-06-03 12:57:00,78.3,61.3,29.84,SW,231,2.0,3.0,56,0.00,,,0.00,VWS V14.01,2013-06-03 16:57:00,
2013-06-03 13:02:00,78.6,60.6,29.84,West,265,1.0,3.0,54,0.00,,,0.00,VWS V14.01,2013-06-03 17:02:00,
2013-06-03 13:07:00,78.3,60.8,29.84,WSW,250,0.0,3.0,55,0.00,,,0.00,VWS V14.01,2013-06-03 17:07:00,
2013-06-03 13:12:00,77.6,60.7,29.84,SW,229,2.0,3.0,56,0.00,,,0.00,VWS V14.01,2013-06-03 17:12:00,
2013-06-03 13:17:00,77.7,60.3,29.84,SW,220,0.0,3.0,55,0.00,,,0.00,VWS V14.01,2013-06-03 17:17:00,
2013-06-03 13:22:00,78.3,60.3,29.83,NW,309,1.0,3.0,54,0.00,,,0.00,VWS V14.01,2013-06-03 17:22:00,
2013-06-03 13:28:00,79.2,60.6,29.83,WSW,239,2.0,3.0,53,0.00,,,0.00,VWS V14.01,2013-06-03 17:28:00,
2013-06-03 13:33:00,79.2,61.1,29.83,SW,236,0.0,3.0,54,0.00,,,0.00,VWS V14.01,2013-06-03 17:33:00,
2013-06-03 13:38:00,80.1,61.4,29.82,SW,236,4.0,4.0,53,0.00,,,0.00,VWS V14.01,2013-06-03 17:38:00,
2013-06-03 13:43:00,80.1,61.4,29.82,West,265,2.0,3.0,53,0.00,,,0.00,VWS V14.01,2013-06-03 17:43:00,
2013-06-03 13:48:00,79.4,62.3,29.82,WNW,300,1.0,3.0,56,0.00,,,0.00,VWS V14.01,2013-06-03 17:48:00,
2013-06-03 13:53:00,77.6,62.2,29.83,SSW,209,1.0,3.0,59,0.00,,,0.00,VWS V14.01,2013-06-03 17:53:00,
2013-06-03 13:58:00,75.8,63.2,29.83,NNW,341,1.0,3.0,65,0.00,,,0.00,VWS V14.01,2013-06-03 17:58:00,
2013-06-03 14:03:00,74.0,62.8,29.83,NNW,341,0.0,3.0,68,0.00,,,0.00,VWS V14.01,2013-06-03 18:03:00,
2013-06-03 14:09:00,72.7,62.4,29.84,NNW,327,1.0,3.0,70,0.00,,,0.00,VWS V14.01,2013-06-03 18:09:00,
2013-06-03 14:14:00,72.1,61.0,29.84,WSW,242,0.0,3.0,68,0.00,,,0.00,VWS V14.01,2013-06-03 18:14:00,
2013-06-03 14:19:00,73.2,60.3,29.83,WSW,238,0.0,3.0,64,0.00,,,0.00,VWS V14.01,2013-06-03 18:19:00,
2013-06-03 14:24:00,74.7,60.8,29.83,WNW,288,3.0,3.0,62,0.00,,,0.00,VWS V14.01,2013-06-03 18:24:00,
2013-06-03 14:29:00,76.0,60.7,29.83,SSW,212,0.0,3.0,59,0.00,,,0.00,VWS V14.01,2013-06-03 18:29:00,
2013-06-03 14:34:00,76.3,60.5,29.82,WSW,246,2.0,3.0,58,0.00,,,0.00,VWS V14.01,2013-06-03 18:34:00,
2013-06-03 14:40:00,76.3,61.9,29.82,WSW,244,0.0,3.0,61,0.00,,,0.00,VWS V14.01,2013-06-03 18:40:00,
2013-06-03 14:45:00,76.3,61.4,29.82,ESE,119,0.0,3.0,60,0.00,,,0.00,VWS V14.01,2013-06-03 18:45:00,
2013-06-03 14:50:00,76.1,61.7,29.82,SSW,202,1.0,3.0,61,0.00,,,0.00,VWS V14.01,2013-06-03 18:50:00,
2013-06-03 14:55:00,75.4,60.6,29.82,WSW,237,0.0,3.0,60,0.00,,,0.00,VWS V14.01,2013-06-03 18:55:00,
2013-06-03 15:00:00,75.3,60.9,29.82,WSW,237,0.0,3.0,61,0.00,,,0.00,VWS V14.01,2013-06-03 19:00:00,
2013-06-03 15:05:00,76.0,60.2,29.82,SSE,156,0.0,3.0,58,0.00,,,0.00,VWS V14.01,2013-06-03 19:05:00,
2013-06-03 15:11:00,77.4,60.5,29.82,West,269,4.0,4.0,56,0.00,,,0.00,VWS V14.01,2013-06-03 19:11:00,
2013-06-03 15:16:00,78.5,60.5,29.82,West,269,2.0,3.0,54,0.00,,,0.00,VWS V14.01,2013-06-03 19:16:00,
2013-06-03 15:21:00,78.1,59.6,29.81,West,269,0.0,3.0,53,0.00,,,0.00,VWS V14.01,2013-06-03 19:21:00,
2013-06-03 15:26:00,78.3,59.2,29.81,West,269,1.0,3.0,52,0.00,,,0.00,VWS V14.01,2013-06-03 19:26:00,
2013-06-03 15:31:00,78.6,58.4,29.81,West,269,0.0,3.0,50,0.00,,,0.00,VWS V14.01,2013-06-03 19:31:00,
2013-06-03 15:36:00,79.6,59.3,29.79,SW,232,4.0,4.0,50,0.00,,,0.00,VWS V14.01,2013-06-03 19:36:00,
2013-06-03 15:41:00,80.3,58.8,29.79,SW,225,3.0,3.0,48,0.00,,,0.00,VWS V14.01,2013-06-03 19:41:00,
2013-06-03 15:47:00,80.1,58.7,29.79,WNW,300,3.0,3.0,48,0.00,,,0.00,VWS V14.01,2013-06-03 19:47:00,
2013-06-03 15:52:00,79.8,57.2,29.79,WNW,300,2.0,3.0,46,0.00,,,0.00,VWS V14.01,2013-06-03 19:52:00,
2013-06-03 15:57:00,79.4,58.6,29.79,WSW,254,2.0,3.0,49,0.00,,,0.00,VWS V14.01,2013-06-03 19:57:00,
2013-06-03 16:02:00,79.6,57.6,29.79,WNW,294,0.0,3.0,47,0.00,,,0.00,VWS V14.01,2013-06-03 20:02:00,
2013-06-03 16:07:00,79.0,58.8,29.79,ENE,61,4.0,4.0,50,0.00,,,0.00,VWS V14.01,2013-06-03 20:07:00,
2013-06-03 16:12:00,79.0,57.1,29.79,WNW,297,0.0,3.0,47,0.00,,,0.00,VWS V14.01,2013-06-03 20:12:00,
2013-06-03 16:17:00,79.4,56.2,29.79,NW,311,2.0,3.0,45,0.00,,,0.00,VWS V14.01,2013-06-03 20:17:00,
2013-06-03 16:23:00,80.1,56.9,29.79,West,270,0.0,3.0,45,0.00,,,0.00,VWS V14.01,2013-06-03 20:23:00,
2013-06-03 16:28:00,80.9,56.3,29.79,West,269,0.0,3.0,43,0.00,,,0.00,VWS V14.01,2013-06-03 20:28:00,
2013-06-03 16:33:00,81.2,56.6,29.79,WNW,286,0.0,3.0,43,0.00,,,0.00,VWS V14.01,2013-06-03 20:33:00,
2013-06-03 16:38:00,81.6,57.0,29.78,SW,214,0.0,3.0,43,0.00,,,0.00,VWS V14.01,2013-06-03 20:38:00,
2013-06-03 16:43:00,81.6,55.6,29.78,SW,228,1.0,3.0,41,0.00,,,0.00,VWS V14.01,2013-06-03 20:43:00,
2013-06-03 16:48:00,81.4,58.0,29.78,West,271,0.0,3.0,45,0.00,,,0.00,VWS V14.01,2013-06-03 20:48:00,
2013-06-03 16:54:00,80.9,57.0,29.78,NW,319,0.0,3.0,44,0.00,,,0.00,VWS V14.01,2013-06-03 20:54:00,
2013-06-03 16:59:00,80.5,58.4,29.78,North,355,3.0,3.0,47,0.00,,,0.00,VWS V14.01,2013-06-03 20:59:00,
2013-06-03 17:04:00,79.6,57.6,29.79,North,355,0.0,3.0,47,0.00,,,0.00,VWS V14.01,2013-06-03 21:04:00,
2013-06-03 17:09:00,78.8,57.5,29.79,SW,224,0.0,3.0,48,0.00,,,0.00,VWS V14.01,2013-06-03 21:09:00,
2013-06-03 17:14:00,77.9,57.8,29.79,SW,224,0.0,3.0,50,0.00,,,0.00,VWS V14.01,2013-06-03 21:14:00,
2013-06-03 17:19:00,76.7,57.2,29.79,SW,224,0.0,3.0,51,0.00,,,0.00,VWS V14.01,2013-06-03 21:19:00,
2013-06-03 17:25:00,76.1,57.2,29.79,SW,224,0.0,3.0,52,0.00,,,0.00,VWS V14.01,2013-06-03 21:25:00,
2013-06-03 17:30:00,76.1,57.8,29.79,SW,224,0.0,3.0,53,0.00,,,0.00,VWS V14.01,2013-06-03 21:30:00,
2013-06-03 17:35:00,76.1,57.8,29.80,SW,224,0.0,3.0,53,0.00,,,0.00,VWS V14.01,2013-06-03 21:35:00,
2013-06-03 17:40:00,76.5,57.6,29.80,SW,224,0.0,3.0,52,0.00,,,0.00,VWS V14.01,2013-06-03 21:40:00,
2013-06-03 17:45:00,76.8,58.4,29.80,SW,224,0.0,3.0,53,0.00,,,0.00,VWS V14.01,2013-06-03 21:45:00,
2013-06-03 17:50:00,77.4,57.9,29.79,ENE,70,1.0,3.0,51,0.00,,,0.00,VWS V14.01,2013-06-03 21:50:00,
2013-06-03 17:55:00,77.2,57.1,29.79,ENE,76,0.0,3.0,50,0.00,,,0.00,VWS V14.01,2013-06-03 21:55:00,
2013-06-03 18:01:00,77.6,59.1,29.79,NW,310,2.0,3.0,53,0.00,,,0.00,VWS V14.01,2013-06-03 22:01:00,
2013-06-03 18:06:00,77.4,57.3,29.79,NNE,21,2.0,3.0,50,0.00,,,0.00,VWS V14.01,2013-06-03 22:06:00,
2013-06-03 18:11:00,77.0,57.5,29.79,North,351,2.0,3.0,51,0.00,,,0.00,VWS V14.01,2013-06-03 22:11:00,
2013-06-03 18:16:00,76.7,58.8,29.79,North,355,0.0,3.0,54,0.00,,,0.00,VWS V14.01,2013-06-03 22:16:00,
2013-06-03 18:21:00,76.8,56.8,29.79,SW,224,0.0,3.0,50,0.00,,,0.00,VWS V14.01,2013-06-03 22:21:00,
2013-06-03 18:26:00,77.0,55.8,29.79,SW,234,1.0,3.0,48,0.00,,,0.00,VWS V14.01,2013-06-03 22:26:00,
2013-06-03 18:31:00,77.0,56.4,29.79,WSW,254,0.0,3.0,49,0.00,,,0.00,VWS V14.01,2013-06-03 22:31:00,
2013-06-03 18:37:00,76.8,55.7,29.79,SW,223,2.0,3.0,48,0.00,,,0.00,VWS V14.01,2013-06-03 22:37:00,
2013-06-03 18:42:00,76.7,56.1,29.79,SW,226,0.0,3.0,49,0.00,,,0.00,VWS V14.01,2013-06-03 22:42:00,
2013-06-03 18:47:00,76.5,55.9,29.79,WSW,257,0.0,3.0,49,0.00,,,0.00,VWS V14.01,2013-06-03 22:47:00,
2013-06-03 18:52:00,76.3,55.8,29.79,SSW,202,0.0,3.0,49,0.00,,,0.00,VWS V14.01,2013-06-03 22:52:00,
2013-06-03 18:57:00,76.0,56.0,29.79,SSW,202,0.0,3.0,50,0.00,,,0.00,VWS V14.01,2013-06-03 22:57:00,
2013-06-03 19:02:00,75.8,57.5,29.79,WSW,257,1.0,3.0,53,0.00,,,0.00,VWS V14.01,2013-06-03 23:02:00,
2013-06-03 19:07:00,74.9,56.6,29.80,SSW,211,0.0,3.0,53,0.00,,,0.00,VWS V14.01,2013-06-03 23:07:00,
2013-06-03 19:12:00,74.4,56.7,29.80,SSE,156,0.0,3.0,54,0.00,,,0.00,VWS V14.01,2013-06-03 23:12:00,
2013-06-03 19:18:00,74.2,55.5,29.80,West,281,0.0,3.0,52,0.00,,,0.00,VWS V14.01,2013-06-03 23:18:00,
2013-06-03 19:23:00,74.0,56.8,29.81,West,281,0.0,3.0,55,0.00,,,0.00,VWS V14.01,2013-06-03 23:23:00,
2013-06-03 19:28:00,73.7,56.0,29.81,NE,39,1.0,3.0,54,0.00,,,0.00,VWS V14.01,2013-06-03 23:28:00,
2013-06-03 19:33:00,73.5,56.9,29.81,NE,39,0.0,3.0,56,0.00,,,0.00,VWS V14.01,2013-06-03 23:33:00,
2013-06-03 19:38:00,73.5,60.2,29.81,NE,39,0.0,3.0,63,0.00,,,0.00,VWS V14.01,2013-06-03 23:38:00,
2013-06-03 19:44:00,73.3,56.2,29.81,NE,39,0.0,3.0,55,0.00,,,0.00,VWS V14.01,2013-06-03 23:44:00,
2013-06-03 19:49:00,73.2,60.7,29.81,NE,39,0.0,3.0,65,0.00,,,0.00,VWS V14.01,2013-06-03 23:49:00,
2013-06-03 19:54:00,72.8,60.8,29.81,NE,39,0.0,3.0,66,0.00,,,0.00,VWS V14.01,2013-06-03 23:54:00,
2013-06-03 19:59:00,72.3,61.2,29.81,NE,39,1.0,3.0,68,0.00,,,0.00,VWS V14.01,2013-06-03 23:59:00,
2013-06-03 20:04:00,71.5,61.2,29.82,NE,39,0.0,3.0,70,0.00,,,0.00,VWS V14.01,2013-06-04 00:04:00,
2013-06-03 20:09:00,70.9,61.0,29.82,NE,39,1.0,3.0,71,0.00,,,0.00,VWS V14.01,2013-06-04 00:09:00,
2013-06-03 20:14:00,70.3,60.5,29.82,NE,39,0.0,3.0,71,0.00,,,0.00,VWS V14.01,2013-06-04 00:14:00,
2013-06-03 20:19:00,69.8,60.8,29.83,NE,39,0.0,3.0,73,0.00,,,0.00,VWS V14.01,2013-06-04 00:19:00,
2013-06-03 20:24:00,69.3,60.7,29.83,NE,39,2.0,3.0,74,0.00,,,0.00,VWS V14.01,2013-06-04 00:24:00,
2013-06-03 20:29:00,68.8,60.2,29.83,NE,39,0.0,3.0,74,0.00,,,0.00,VWS V14.01,2013-06-04 00:29:00,
2013-06-03 20:35:00,68.4,60.2,29.84,NE,39,0.0,3.0,75,0.00,,,0.00,VWS V14.01,2013-06-04 00:35:00,
2013-06-03 20:40:00,67.9,60.1,29.84,NE,39,0.0,3.0,76,0.00,,,0.00,VWS V14.01,2013-06-04 00:40:00,
2013-06-03 20:45:00,67.4,60.0,29.84,NE,39,0.0,3.0,77,0.00,,,0.00,VWS V14.01,2013-06-04 00:45:00,
2013-06-03 20:50:00,66.9,59.8,29.85,NE,39,0.0,3.0,78,0.00,,,0.00,VWS V14.01,2013-06-04 00:50:00,
2013-06-03 20:55:00,66.4,59.7,29.85,NE,39,0.0,3.0,79,0.00,,,0.00,VWS V14.01,2013-06-04 00:55:00,
2013-06-03 21:00:00,66.0,59.7,29.85,NE,39,0.0,3.0,80,0.00,,,0.00,VWS V14.01,2013-06-04 01:00:00,
2013-06-03 21:05:00,65.6,60.0,29.86,NE,39,0.0,3.0,82,0.00,,,0.00,VWS V14.01,2013-06-04 01:05:00,
2013-06-03 21:10:00,65.5,59.9,29.86,NE,39,1.0,3.0,82,0.00,,,0.00,VWS V14.01,2013-06-04 01:10:00,
2013-06-03 21:16:00,65.3,59.3,29.86,NE,39,1.0,3.0,81,0.00,,,0.00,VWS V14.01,2013-06-04 01:16:00,
2013-06-03 21:21:00,65.5,59.2,29.86,NNE,12,1.0,3.0,80,0.00,,,0.00,VWS V14.01,2013-06-04 01:21:00,
2013-06-03 21:26:00,65.6,59.6,29.86,NNE,12,1.0,3.0,81,0.00,,,0.00,VWS V14.01,2013-06-04 01:26:00,
2013-06-03 21:31:00,65.6,58.2,29.86,NNW,344,2.0,3.0,77,0.00,,,0.00,VWS V14.01,2013-06-04 01:31:00,
2013-06-03 21:37:00,65.8,59.1,29.86,NNW,344,0.0,3.0,79,0.00,,,0.00,VWS V14.01,2013-06-04 01:37:00,
2013-06-03 21:42:00,65.6,59.3,29.86,NNW,344,1.0,3.0,80,0.00,,,0.00,VWS V14.01,2013-06-04 01:42:00,
2013-06-03 21:47:00,65.6,58.6,29.86,NE,42,0.0,3.0,78,0.00,,,0.00,VWS V14.01,2013-06-04 01:47:00,
2013-06-03 21:52:00,65.8,58.0,29.87,ENE,64,2.0,3.0,76,0.00,,,0.00,VWS V14.01,2013-06-04 01:52:00,
2013-06-03 21:57:00,66.0,58.6,29.87,NE,42,0.0,3.0,77,0.00,,,0.00,VWS V14.01,2013-06-04 01:57:00,
2013-06-03 22:02:00,66.1,58.7,29.87,NE,42,2.0,3.0,77,0.00,,,0.00,VWS V14.01,2013-06-04 02:02:00,
2013-06-03 22:07:00,66.0,58.6,29.88,NE,42,0.0,3.0,77,0.00,,,0.00,VWS V14.01,2013-06-04 02:07:00,
2013-06-03 22:12:00,66.0,58.6,29.88,NE,42,0.0,3.0,77,0.00,,,0.00,VWS V14.01,2013-06-04 02:12:00,
2013-06-03 22:17:00,66.0,59.0,29.88,NE,42,0.0,3.0,78,0.00,,,0.00,VWS V14.01,2013-06-04 02:17:00,
2013-06-03 22:23:00,65.8,58.0,29.89,NE,42,0.0,3.0,76,0.00,,,0.00,VWS V14.01,2013-06-04 02:23:00,
2013-06-03 22:28:00,65.6,57.5,29.89,NE,42,0.0,3.0,75,0.00,,,0.00,VWS V14.01,2013-06-04 02:28:00,
2013-06-03 22:33:00,65.8,58.8,29.89,NE,42,0.0,3.0,78,0.00,,,0.00,VWS V14.01,2013-06-04 02:33:00,
2013-06-03 22:38:00,65.8,58.0,29.89,NE,42,0.0,3.0,76,0.00,,,0.00,VWS V14.01,2013-06-04 02:38:00,
2013-06-03 22:43:00,65.8,58.0,29.89,NE,42,0.0,3.0,76,0.00,,,0.00,VWS V14.01,2013-06-04 02:43:00,
2013-06-03 22:48:00,65.6,57.8,29.89,NE,42,1.0,3.0,76,0.00,,,0.00,VWS V14.01,2013-06-04 02:48:00,
2013-06-03 22:53:00,65.6,57.8,29.90,NE,42,0.0,3.0,76,0.00,,,0.00,VWS V14.01,2013-06-04 02:53:00,
2013-06-03 22:58:00,65.5,58.1,29.90,NE,42,0.0,3.0,77,0.00,,,0.00,VWS V14.01,2013-06-04 02:58:00,
2013-06-03 23:03:00,65.2,57.8,29.90,NE,42,0.0,3.0,77,0.00,,,0.00,VWS V14.01,2013-06-04 03:03:00,
2013-06-03 23:08:00,65.0,58.0,29.90,NE,42,1.0,3.0,78,0.00,,,0.00,VWS V14.01,2013-06-04 03:08:00,
2013-06-03 23:14:00,65.0,57.6,29.90,NE,40,0.0,3.0,77,0.00,,,0.00,VWS V14.01,2013-06-04 03:14:00,
2013-06-03 23:19:00,65.0,58.7,29.90,NE,40,0.0,3.0,80,0.00,,,0.00,VWS V14.01,2013-06-04 03:19:00,
2013-06-03 23:24:00,64.2,58.3,29.89,NE,40,0.0,3.0,81,0.00,,,0.00,VWS V14.01,2013-06-04 03:24:00,
2013-06-03 23:29:00,63.7,57.8,29.89,NE,40,0.0,3.0,81,0.00,,,0.00,VWS V14.01,2013-06-04 03:29:00,
2013-06-03 23:34:00,63.5,57.9,29.90,NE,40,0.0,3.0,82,0.00,,,0.00,VWS V14.01,2013-06-04 03:34:00,
2013-06-03 23:39:00,63.4,58.2,29.90,NE,40,0.0,3.0,83,0.00,,,0.00,VWS V14.01,2013-06-04 03:39:00,
2013-06-03 23:44:00,63.2,58.0,29.90,NE,40,0.0,3.0,83,0.00,,,0.00,VWS V14.01,2013-06-04 03:44:00,
2013-06-03 23:49:00,62.9,57.7,29.90,NE,40,0.0,3.0,83,0.00,,,0.00,VWS V14.01,2013-06-04 03:49:00,
2013-06-03 23:55:00,62.6,57.7,29.90,NE,40,0.0,3.0,84,0.00,,,0.00,VWS V14.01,2013-06-04 03:55:00,